Regional Weather Roundup
Issued by NWS

Home | Current Version | Previous Version | Graphics & Text | Print | Product List | Glossary On
Versions: 1 2 3 4 5 6 7 8 9 10 11 12 13 14 15 16 17 18 19 20 21 22 23 24 25 26 27 28 29 30 31 32 33 34 35 36 37 38 39 40 41 42 43 44 45 46 47 48 49 50
000
ASUS43 KLMK 081010
RWRKY
KENTUCKY REGIONAL WEATHER ROUNDUP
NATIONAL WEATHER SERVICE LOUISVILLE KY
500 AM EST MON FEB 08 2016

NOTE "FAIR" INDICATES FEW OR NO CLOUDS BELOW 12,000 FEET
WITH NO SIGNIFICANT WEATHER AND/OR OBSTRUCTIONS TO VISIBILITY.

KYZ001>023-026-027-061>063-070>075-081100-
WESTERN AND SOUTH CENTRAL KENTUCKY

CITY           SKY/WX    TMP DP  RH WIND       PRES   REMARKS
PADUCAH        MOCLDY    39  27  62 W10       29.79F WCI  32
HENDERSON      CLOUDY    36  30  80 W15G21    29.77S WCI  26
OWENSBORO      MOCLDY    36  35  96 SW7       29.76F WCI  30
HOPKINSVILLE   CLEAR     36  28  73 SW8       29.77F WCI  29
BOWLING GREEN  MOCLDY    37  35  92 CALM      29.78F
GLASGOW        CLOUDY    37  37 100 SW3       29.77F
$$

KYZ024-025-028>034-038-045-046-053-081100-
NORTH CENTRAL KENTUCKY

CITY           SKY/WX    TMP DP  RH WIND       PRES   REMARKS
LOUISVILLE/SDF CLOUDY    37  33  85 NW3       29.73F
LOUISVILLE/LOU CLOUDY    36  33  89 N3        29.73F
FORT KNOX      MOCLDY    35  32  91 SW6       29.72S WCI  29
$$

KYZ035>037-039>044-047>052-055>060-089>105-081100-
NORTHEAST KENTUCKY

CITY           SKY/WX    TMP DP  RH WIND       PRES   REMARKS
LEXINGTON      LGT RAIN  36  33  89 W7        29.72F WCI  30
COVINGTON      LGT RAIN  38  33  82 CALM      29.68F
FRANKFORT      CLOUDY    37  34  89 W3        29.71F
$$

KYZ054-064>069-076>088-106>120-081100-
SOUTHEAST KENTUCKY

CITY           SKY/WX    TMP DP  RH WIND       PRES   REMARKS
JACKSON        CLOUDY    40  21  46 SW5       29.70F
LONDON         CLOUDY    43  22  43 SW8       29.73F
SOMERSET       LGT RAIN  37  32  81 W12       29.77R WCI  30
MIDDLESBORO    PTCLDY    29  27  91 NW3       29.77F
MONTICELLO     LGT RAIN  39  34  82 W21       29.79R WCI  29
$$




USA.gov is the U.S. government's official web portal to all federal, state and local government web resources and services.